Flag for Canada Weather past 2 weeks in Wood Buffalo, Alberta, Canada

Now
53 °F

Cool.


Feels Like: 51 °F
Forecast: 41 / 58 °F
Wind: 7 mph from Northeast

Location: Fort McMurray CS

Current Time: Sep 2, 2015 at 4:33:46 PM

Latest Report: Sep 2, 2015 at 3:00 PM


Visibility: N/A

Pressure: 29.73 "Hg

Humidity: 75%

Dew point: 45 °F

Location of Wood BuffaloLocation

Historic Weather in Wood Buffalo — Graph

°F

Wood Buffalo temperature yesterday

Maximum temperature yesterday: 52 °F (at 7:00 PM)
Minimum temperature yesterday: 39 °F (at 4:00 AM)
Average temperature yesterday: 48 °F

Past Weeks' High & Low Weather Summary

 TemperatureHumidityPressure
High80 °F (Aug 30, 3:00 PM)100% (Aug 23, 5:00 AM)30.13 "Hg (Aug 23, 5:00 AM)
Low32 °F (Aug 23, 2:00 AM)24% (Aug 23, 4:00 PM)29.29 "Hg (Aug 30, 8:00 AM)
Average58 °F66%29.73 "Hg
* Reported Aug 18 2:00 PM — Sep 2 2:00 PM, Wood Buffalo, Weather by CustomWeather, © 2015

Note: Actual official high and low records may vary slightly from our data, if they occured in-between our weather recording intervals... More about our weather records

Advertising

Wood Buffalo weather history for previous 24 hours

 ConditionsComfort  
Time TempWeatherWind HumidityBarometerVisibility
2:00 PM
Wed, Sep 2
49 °FCool.10 mph88%29.74 "HgN/A
1:00 PM47 °FCool.5 mph92%29.77 "HgN/A
12:00 PM44 °FQuite cool.3 mph97%29.77 "HgN/A
11:00 AM43 °FQuite cool.3 mph96%29.76 "HgN/A
10:00 AM42 °FQuite cool.3 mph98%29.76 "HgN/A
9:00 AM42 °FQuite cool.6 mph97%29.76 "HgN/A
8:00 AM40 °FQuite cool.3 mph98%29.78 "HgN/A
7:00 AM38 °FChilly.3 mph99%29.77 "HgN/A
6:00 AM37 °FChilly.1 mph99%29.77 "HgN/A
5:00 AM38 °FChilly.2 mph99%29.76 "HgN/A
4:00 AM36 °FChilly.7 mph100%29.76 "HgN/A
3:00 AM39 °FChilly.1 mph99%29.74 "HgN/A
2:00 AM37 °FChilly.1 mph92%29.74 "HgN/A
1:00 AM37 °FChilly.1 mph98%29.72 "HgN/A
12:00 AM43 °FQuite cool.1 mph98%29.72 "HgN/A
11:00 PM
Tue, Sep 1
44 °FQuite cool.5 mph97%29.71 "HgN/A
10:00 PM45 °FCool.5 mph90%29.70 "HgN/A
9:00 PM50 °FCool.9 mph89%29.68 "HgN/A
8:00 PM49 °FCool.6 mph98%29.66 "HgN/A
7:00 PM52 °FCool.6 mph85%29.65 "HgN/A
6:00 PM52 °FCool.9 mph88%29.64 "HgN/A
5:00 PM52 °FCool.8 mph82%29.62 "HgN/A
4:00 PM51 °FCool.12 mph80%29.61 "HgN/A
Weather by CustomWeather, © 2015

See weather overviewHow to use our weather pages